Simultaneous Nadir Overpasses (SNOs) Predictions

Prediction of SNOs between AQUA and GOES-15 Satellite Orbit:

Table of predicted SNOs for the next 14.0 days since TLE Epoch: 11/25/2012
Index Date Time (AQUA) AQUA Lat,Lon GOES-15 Lat,Lon Distance(km) Time Diff (sec)
1 11/25/2012 10:25:30 -0.53,-132.64 -0.02,-135.03 271.65 80
2 11/25/2012 22:46:55 -0.54,-137.84 0.04,-135.04 318.63 80
3 11/27/2012 22:34:43 0.09,-134.88 0.03,-135.11 25.88 80
4 11/29/2012 22:22:30 0.70,-131.92 0.02,-135.17 370.12 80
5 11/30/2012 10:43:46 0.33,-137.08 -0.04,-135.21 212.85 80
6 12/02/2012 10:31:32 -0.28,-134.11 -0.04,-135.27 130.98 80
7 12/02/2012 22:52:55 -0.80,-139.31 0.06,-135.26 460.12 80
8 12/04/2012 10:19:18 -0.94,-131.15 -0.04,-135.32 474.63 80
9 12/04/2012 22:40:40 -0.18,-136.33 0.06,-135.31 116.40 80
10 12/06/2012 22:28:25 0.49,-133.37 0.05,-135.36 227.09 80
11 12/07/2012 10:49:40 0.57,-138.53 -0.07,-135.39 355.38 80




NCC Satellite Simultaneous Nadir Overpasses (SNOs) Prediction Service
